Theta_e
338 336 341 346 351 354 354 353 353 353 353 353 352 352 352 353 352 352 351 350 350 350 350 349 349 349 349 349 349 349 349 349 349 349 349 348 348 348 351 352 352 352 351 350 349 349 348 347 346 345 345 345 344 344 343 342 342 343 344 344 345 347 348 348 348 349 349 350 349 350 350 349 349 348 347 347 349 349 349 349 349 348 350 350 351
336 337 341 348 349 353 354 353 353 353 353 353 352 352 352 352 352 351 351 350 350 350 349 349 349 348 348 347 348 349 348 348 349 348 349 349 348 347 350 351 352 351 351 350 349 349 348 348 347 346 344 343 342 341 340 340 340 339 340 341 342 344 345 346 346 347 347 347 348 349 349 348 348 348 347 348 348 348 348 348 348 349 349 350 350
334 338 341 347 347 352 353 354 353 353 353 353 353 352 352 352 352 351 350 349 349 349 348 348 347 347 347 348 347 347 348 348 348 348 347 348 347 348 350 350 350 350 349 349 349 348 347 345 345 344 343 342 341 339 338 337 337 337 338 338 339 342 344 344 345 346 346 346 345 346 346 347 346 346 346 347 348 348 347 347 348 349 350 350 349
335 338 342 345 345 348 353 353 353 354 354 353 352 352 352 352 352 351 350 349 349 348 348 347 347 347 347 347 347 348 347 347 347 347 347 347 347 348 347 348 349 350 349 348 349 346 346 345 344 343 341 340 340 338 336 334 334 335 336 337 337 340 343 343 344 345 345 345 344 344 347 348 346 345 345 347 347 347 346 347 347 348 349 348 349
336 338 342 346 349 347 351 352 354 354 354 354 353 353 352 352 351 350 349 350 349 348 348 348 347 346 346 347 346 346 347 347 347 347 347 347 347 348 347 348 348 348 349 347 347 347 346 345 344 343 341 339 338 336 334 332 331 332 335 335 337 341 342 342 343 345 345 344 343 345 347 347 348 345 345 346 347 346 347 346 345 346 347 348 348
336 339 343 346 348 351 348 352 354 354 354 354 353 353 353 352 351 350 350 350 349 349 347 347 347 346 346 346 346 346 346 346 346 345 346 346 347 347 347 347 348 348 347 347 347 346 346 345 344 343 341 338 337 334 333 331 330 331 333 334 338 341 341 342 342 343 343 342 343 346 347 348 346 346 346 347 347 345 346 345 345 344 345 346 347
336 340 343 346 348 348 345 352 354 353 354 354 353 353 353 352 351 350 350 350 349 348 347 347 346 346 346 345 345 345 345 346 345 345 346 346 346 346 347 347 347 347 347 346 346 345 345 344 342 341 339 337 335 333 331 330 331 332 333 334 338 341 341 341 341 342 340 343 346 346 346 347 346 346 345 346 347 345 344 344 344 344 344 344 345
338 340 344 345 347 346 344 350 354 354 353 354 353 353 352 352 351 351 350 349 349 348 348 348 346 345 345 345 345 345 345 346 345 345 345 345 345 346 346 346 347 346 346 345 345 344 343 342 341 340 336 334 333 331 330 331 332 332 333 335 338 340 341 342 341 340 339 342 344 345 345 344 345 346 345 345 345 345 345 345 344 343 343 345 343
338 340 343 345 347 342 343 348 353 354 353 354 353 353 352 352 351 351 350 350 349 348 347 347 348 345 345 345 345 345 345 345 346 345 345 345 344 345 345 347 346 345 345 344 344 342 341 340 340 338 335 332 330 329 329 332 332 332 333 336 337 339 339 340 339 338 339 342 344 344 344 344 344 346 345 345 344 343 344 343 344 343 344 343 343
337 340 343 346 347 341 345 346 352 353 353 354 354 353 353 352 351 351 350 349 349 348 347 347 348 346 344 344 345 345 346 346 346 345 344 344 344 345 346 346 346 345 344 343 342 341 339 338 338 337 336 332 328 328 328 330 331 331 332 335 336 337 337 336 337 337 340 342 343 345 345 342 345 345 345 345 344 343 343 343 343 344 343 343 342
336 338 342 344 345 340 346 348 351 352 353 353 354 352 352 352 351 350 350 349 349 348 347 346 347 347 346 345 345 345 346 347 346 345 345 344 344 345 346 346 345 344 343 341 341 340 338 338 337 337 336 332 328 327 327 329 330 330 332 334 336 336 334 332 334 337 336 338 341 341 341 338 345 346 345 344 344 343 343 344 344 344 342 342 341
336 337 340 343 339 339 345 347 350 352 352 353 353 352 352 351 351 350 350 349 349 348 347 346 347 347 347 347 347 347 347 346 346 345 344 344 344 345 345 345 345 343 342 341 341 340 342 341 339 337 335 332 328 326 327 328 328 329 330 333 335 333 331 329 330 333 334 337 338 337 339 340 342 344 344 345 345 344 344 343 343 343 343 343 342
336 338 339 340 343 337 342 345 346 351 352 353 353 352 352 351 350 350 349 349 348 348 347 347 347 347 346 347 347 347 347 346 345 345 344 344 344 345 345 345 343 342 341 341 340 340 339 339 338 337 334 330 326 325 325 327 327 328 329 332 333 331 329 326 329 332 334 335 335 334 336 340 341 342 342 343 343 343 343 343 343 344 343 343 342
335 337 338 340 341 337 337 341 345 349 351 351 352 352 352 351 350 350 349 349 349 349 347 347 347 347 346 347 347 347 347 347 346 345 344 344 345 345 345 344 343 342 341 340 339 338 339 339 338 335 330 327 325 324 325 325 327 328 328 331 330 328 324 324 325 329 331 332 333 334 335 336 339 342 340 340 340 341 342 341 341 343 342 342 342
334 335 336 338 340 342 334 337 340 343 346 349 350 351 351 351 350 350 349 349 350 350 349 348 349 347 347 348 347 347 347 347 346 345 344 344 345 345 345 344 342 341 340 339 338 337 336 339 337 334 329 326 324 323 323 325 327 327 328 330 329 326 322 324 326 327 329 329 330 332 335 336 339 342 338 338 339 339 338 338 339 339 340 340 340
331 332 333 334 336 339 341 336 334 336 341 344 346 347 348 349 349 349 349 349 349 349 349 349 349 349 348 347 347 348 348 347 345 345 344 344 344 344 343 343 342 341 340 338 337 336 339 339 335 332 330 327 324 322 322 324 325 326 328 328 327 325 321 321 326 327 328 329 329 331 333 336 339 338 335 336 336 336 335 336 337 338 338 338 338
327 330 334 333 334 336 339 342 339 332 334 337 340 342 344 346 347 348 347 347 347 348 348 348 348 348 349 348 347 345 345 347 345 344 343 343 344 343 343 342 342 341 339 338 338 340 339 336 334 331 330 327 324 321 322 323 323 324 326 327 325 323 321 320 325 325 328 328 328 331 333 338 338 336 334 336 335 334 334 334 334 335 336 336 336
326 331 333 333 334 334 336 340 342 342 343 338 334 338 341 344 343 344 344 343 345 346 346 346 346 346 344 343 341 341 342 344 344 343 343 342 342 342 341 341 341 341 339 338 339 339 337 335 333 331 329 327 324 321 321 321 321 323 324 323 322 321 319 318 323 324 326 325 328 330 333 335 337 337 335 334 334 332 333 333 333 333 333 334 334
324 328 330 332 333 334 336 338 340 342 344 345 345 342 334 339 340 340 341 341 342 343 343 341 341 341 340 337 334 335 337 338 341 341 340 339 337 339 341 340 341 340 338 338 339 338 336 334 333 331 329 326 323 320 320 320 320 320 322 321 318 317 315 318 321 322 324 326 327 329 333 334 335 336 336 335 334 333 332 332 330 331 330 331 332
314 317 324 328 330 333 335 337 339 341 342 344 344 345 335 332 336 337 338 339 339 340 340 337 337 335 334 330 328 332 333 338 330 338 336 338 334 336 338 341 340 340 338 339 338 336 335 334 332 331 328 326 322 320 321 320 318 317 318 317 316 313 318 318 319 322 323 324 324 328 331 332 334 334 335 334 333 333 331 330 330 328 329 330 329
305 307 311 313 320 330 334 335 337 339 342 342 344 344 342 330 332 333 333 334 335 336 337 332 329 329 329 324 326 338 341 342 339 343 330 340 329 327 335 339 339 337 338 339 338 336 335 333 332 330 327 322 318 316 315 315 315 315 315 313 310 315 314 316 318 320 321 319 322 327 329 330 332 333 333 332 332 331 330 330 329 329 329 327 327
301 302 304 307 311 314 322 334 336 337 340 342 343 343 343 336 342 341 341 337 332 331 338 343 331 340 325 332 338 337 340 341 340 334 339 337 334 324 329 335 336 334 336 338 338 336 334 333 331 328 324 319 312 311 308 308 311 311 310 308 312 312 312 314 316 317 317 316 315 321 328 330 330 331 331 330 330 329 327 326 326 327 328 327 326
300 300 302 304 306 306 310 315 328 337 338 340 341 342 342 341 340 341 342 333 336 334 342 341 341 338 338 338 336 337 340 342 341 336 337 328 335 322 326 331 333 331 332 336 337 335 334 332 330 326 320 314 312 309 306 305 305 305 303 306 309 310 311 312 313 313 314 312 313 317 325 330 330 330 329 329 328 328 327 326 325 327 327 325 324
298 300 301 303 303 304 305 309 315 326 337 338 340 341 342 342 342 341 340 340 340 338 340 339 337 336 337 338 337 338 340 342 329 324 328 338 335 321 324 326 326 325 325 332 333 334 333 332 328 322 316 311 309 306 303 303 303 304 305 304 305 306 309 310 310 310 311 310 312 314 321 327 330 329 330 330 328 327 326 325 325 325 325 326 325
298 300 302 302 303 304 305 307 309 316 330 337 338 339 340 341 342 342 342 340 338 340 339 338 340 340 338 337 337 336 338 339 338 337 338 339 338 336 332 332 332 331 323 333 334 333 329 326 321 315 313 311 308 304 303 302 302 303 303 303 304 305 306 307 307 308 309 309 311 311 317 321 326 330 330 330 329 327 325 324 326 327 326 325 326
299 300 300 302 303 304 306 306 307 313 322 335 337 337 339 339 339 340 341 342 342 339 339 339 339 340 339 337 336 336 337 336 336 336 336 336 335 332 331 330 332 332 329 328 328 327 323 322 321 317 311 307 305 304 304 302 303 302 302 304 303 304 305 306 307 307 307 307 309 307 312 317 320 325 328 330 330 329 326 324 326 326 326 324 325
298 299 301 302 304 307 308 310 309 312 322 333 337 336 337 338 339 339 338 340 341 340 339 337 337 338 338 336 336 336 334 335 334 335 334 334 333 331 328 327 328 328 327 328 326 324 323 323 322 317 309 307 304 304 304 303 303 305 304 303 303 303 303 304 306 306 306 306 306 305 308 313 318 321 324 328 329 329 328 326 324 326 327 325 325
298 299 300 302 305 307 311 313 312 313 324 331 335 335 335 337 335 336 339 336 333 334 335 336 336 335 334 338 335 335 334 333 333 333 334 333 333 332 331 328 327 324 323 325 323 322 322 321 319 314 311 309 307 306 305 304 303 305 307 305 304 303 303 303 303 305 305 306 306 305 307 313 315 317 321 324 327 328 329 327 325 326 327 326 326
297 298 300 302 304 307 313 315 317 319 326 330 333 333 334 335 334 335 336 332 338 337 337 334 333 330 331 333 333 333 333 332 332 331 329 330 329 328 328 329 328 324 322 323 323 321 320 319 318 315 311 310 308 308 306 304 303 303 304 305 303 303 302 302 302 303 304 304 303 303 304 310 313 315 317 321 325 327 329 328 326 327 326 326 326
296 298 299 301 303 306 313 315 317 321 326 329 329 330 331 332 332 333 334 332 337 338 335 335 331 330 330 329 328 331 332 330 328 326 328 327 326 324 323 324 325 325 324 323 320 320 319 317 315 314 311 308 309 306 306 307 304 303 302 304 303 301 301 301 302 302 303 304 304 304 303 306 310 314 316 318 321 325 328 329 329 327 326 326 327
296 297 298 300 302 307 312 314 316 318 324 326 327 328 329 330 328 330 331 331 333 332 332 332 332 331 328 329 331 330 328 328 326 325 326 326 325 325 325 325 325 323 323 322 318 318 317 318 317 314 311 310 311 304 306 308 305 303 301 303 302 301 301 301 301 302 303 304 304 304 305 303 306 310 313 315 319 322 326 328 329 328 327 328 327
295 296 298 300 304 307 311 314 315 318 319 319 320 322 322 321 321 322 321 321 320 321 321 321 320 323 323 325 326 326 324 326 326 324 324 325 324 324 324 323 322 319 320 319 317 314 315 315 315 314 313 313 308 305 304 308 306 302 301 302 300 301 301 300 301 301 302 304 304 305 305 304 302 305 309 312 316 318 321 324 327 329 331 331 331
296 296 297 301 303 305 310 313 315 316 317 317 317 318 318 318 317 317 317 317 318 317 317 317 317 317 318 319 320 322 324 324 323 322 320 323 322 322 322 321 320 320 320 317 314 313 314 313 311 309 309 310 309 305 303 304 306 302 300 300 300 301 300 300 301 300 302 303 303 303 304 305 305 304 305 308 312 315 317 320 322 325 327 329 329
294 296 298 299 301 303 308 312 313 314 314 315 316 316 316 315 315 315 314 314 314 313 313 313 314 314 315 315 317 317 319 320 321 321 320 319 318 318 318 317 316 315 314 314 314 313 313 314 311 311 309 312 312 309 308 310 307 302 303 300 300 300 299 300 300 300 300 301 301 302 303 304 305 306 306 304 306 309 313 316 319 320 323 326 327
294 295 296 298 300 301 306 310 311 312 313 313 312 311 311 311 310 310 309 310 309 310 310 310 310 311 311 312 313 314 315 317 318 319 317 317 316 315 314 313 313 313 314 313 313 312 312 311 310 312 309 310 308 304 306 306 305 306 303 300 300 299 299 299 299 299 299 300 299 301 302 303 304 305 306 307 304 304 308 312 315 317 319 320 322
292 293 295 298 299 300 303 307 308 308 308 308 308 307 306 305 305 305 304 305 304 304 304 305 305 307 307 308 309 310 312 313 314 316 315 315 314 312 311 311 312 312 312 311 311 310 310 309 308 309 310 308 307 307 303 304 302 303 301 299 299 298 299 299 299 299 298 298 299 300 301 302 302 304 304 306 305 304 304 307 311 314 315 315 317
292 293 293 296 297 298 300 302 303 305 305 305 305 304 304 303 302 301 301 301 301 301 301 301 302 302 302 303 304 305 308 310 310 311 311 311 311 310 310 311 311 311 309 309 307 307 308 307 303 302 305 306 304 304 304 302 301 300 299 299 299 298 299 299 299 298 298 299 299 299 300 301 301 301 304 304 304 304 303 304 307 310 309 310 313
292 292 293 294 295 297 298 300 302 303 304 304 303 302 302 301 300 299 299 297 297 297 297 298 298 298 299 299 301 302 303 305 307 308 308 308 309 309 309 309 310 309 308 307 306 306 306 307 304 301 302 304 303 302 301 300 299 299 299 299 299 298 298 298 299 298 298 299 299 299 299 299 300 301 301 302 303 303 303 302 302 303 304 306 310
290 291 292 293 295 296 297 297 299 300 302 302 302 302 300 299 298 298 297 296 295 295 295 295 295 296 296 297 297 298 300 301 303 304 303 304 305 306 307 308 308 308 307 305 304 305 305 305 306 303 300 299 300 298 297 297 299 298 299 298 297 298 298 297 297 298 298 298 298 298 298 299 299 299 299 300 301 301 302 302 303 304 305 303 307
289 290 292 292 293 295 296 296 296 298 299 300 300 298 298 298 297 296 295 294 294 293 293 293 293 293 294 295 295 296 298 299 300 301 301 301 301 301 302 304 305 305 304 303 303 303 303 302 300 302 301 298 295 296 296 297 297 298 298 298 298 297 297 297 296 297 297 297 297 297 297 297 297 297 297 298 298 299 299 300 299 301 302 302 302
289 289 290 291 291 292 294 293 295 296 297 297 297 297 296 295 294 293 292 292 292 292 292 292 292 292 293 293 294 294 295 296 297 298 298 298 298 298 299 300 301 301 300 300 301 301 302 302 300 298 300 300 297 296 296 295 297 299 299 299 299 297 295 296 296 296 296 296 296 296 296 296 297 297 297 296 297 296 297 297 298 299 300 301 300
288 288 288 289 290 291 291 292 294 295 295 295 295 294 294 293 292 291 291 291 291 290 290 290 290 291 291 291 292 293 294 294 295 296 296 296 296 296 296 297 298 298 297 298 297 297 298 299 301 301 299 297 294 295 296 298 297 293 294 295 297 299 298 295 296 296 297 298 296 295 295 296 297 296 296 296 296 296 296 297 297 297 298 298 299
287 287 288 289 289 290 290 291 292 294 294 295 294 293 294 294 293 292 291 289 290 290 290 290 290 289 289 290 290 291 292 292 293 293 294 294 294 295 294 295 295 296 296 295 296 296 296 297 298 298 298 298 296 297 296 296 293 293 294 293 294 293 299 297 296 296 298 296 294 295 295 296 295 295 295 295 296 297 296 296 296 296 297 297 297
286 286 286 287 288 289 289 290 291 292 293 294 293 293 292 292 292 291 291 291 289 289 289 288 288 288 287 288 288 289 290 290 291 292 292 292 292 293 293 294 294 294 294 294 294 294 294 295 296 296 298 296 296 295 296 295 293 294 294 292 292 290 293 293 291 295 295 293 293 295 294 295 295 295 295 296 296 296 296 295 295 296 295 295 296
285 285 285 285 286 287 288 289 289 290 291 292 293 293 292 291 291 291 291 289 289 288 287 286 286 286 286 286 286 287 288 288 289 289 290 290 291 291 292 292 292 293 293 293 292 292 293 294 295 295 295 296 294 294 295 295 295 295 293 292 292 292 290 290 291 295 293 296 298 295 294 295 296 295 294 295 295 295 295 295 295 295 295 295 295
284 284 285 285 285 286 287 288 289 289 290 290 291 291 291 291 291 289 287 285 284 284 283 283 284 284 284 285 286 286 286 286 287 287 288 288 288 289 290 290 290 291 292 292 292 292 292 292 292 294 294 295 294 294 294 295 295 294 295 294 293 290 288 290 292 290 295 296 295 294 296 297 294 294 295 295 296 296 295 295 295 295 296 295 295
284 284 284 284 285 285 286 287 287 288 289 289 290 289 288 287 286 286 285 284 283 283 284 285 284 284 285 284 284 285 285 285 285 286 286 287 287 287 287 288 288 288 289 290 290 290 291 291 292 292 292 293 294 292 291 292 295 294 294 294 294 293 292 290 289 290 289 292 294 295 296 296 294 295 295 295 295 295 295 295 295 295 295 295 295
283 284 284 284 284 284 285 285 286 286 287 288 288 288 286 286 285 285 284 284 283 283 284 284 284 284 284 284 284 284 284 284 284 285 285 285 286 285 286 286 286 286 287 287 287 288 289 290 290 290 291 291 292 291 291 291 290 291 293 292 292 293 293 293 292 289 288 286 290 295 295 295 295 295 294 294 294 295 294 295 295 295 295 295 295
283 283 283 283 284 284 284 284 284 285 285 286 286 286 286 285 285 284 283 284 284 283 284 284 283 284 283 283 283 283 283 283 283 284 284 284 284 284 285 285 285 285 285 286 286 287 287 287 287 287 288 288 289 290 290 289 290 289 290 291 292 291 292 292 292 291 288 287 288 289 289 293 293 294 294 294 294 293 293 294 295 294 294 294 295
282 283 283 283 283 284 284 283 283 284 284 284 285 285 285 285 284 284 283 282 283 283 283 282 283 283 282 282 282 282 283 282 283 283 283 283 283 283 283 283 283 284 284 284 284 285 285 285 286 286 286 286 287 288 287 288 289 289 289 290 289 289 290 290 290 289 289 289 286 286 288 287 286 290 292 293 294 294 294 294 294 294 294 294 294
282 282 282 282 282 283 282 282 282 283 283 284 284 284 284 284 283 283 283 282 282 283 282 282 282 282 281 281 282 282 282 282 282 282 282 282 282 282 282 282 283 283 283 283 283 283 284 284 284 285 285 285 285 286 286 286 287 287 287 288 288 288 287 286 287 288 287 286 286 286 287 288 287 286 290 291 291 292 293 294 293 293 294 294 294
Wind_Speed
10 6 4 8 8 9 13 13 13 13 12 12 12 10 11 11 11 10 9 8 9 9 8 10 10 10 11 10 10 10 11 11 10 10 10 9 9 10 11 12 11 12 12 13 15 15 14 15 15 15 15 14 14 14 13 13 14 13 13 14 13 13 13 13 13 12 12 13 12 13 12 11 12 11 11 12 12 12 10 9 8 8 7 9 11
9 7 4 6 8 9 13 14 13 12 12 13 12 11 11 11 11 10 9 8 9 9 8 9 9 9 9 9 10 10 10 10 10 10 10 10 9 9 10 11 11 10 12 13 15 15 15 15 14 14 14 14 13 13 14 14 13 13 13 13 13 13 12 12 12 11 12 12 11 11 10 12 11 11 11 11 12 12 10 9 8 7 7 11 12
2 6 5 7 8 8 9 13 13 12 12 12 12 12 12 12 11 11 9 9 9 9 8 7 8 8 9 9 9 9 9 10 9 9 9 9 9 9 10 10 9 10 12 13 15 15 14 14 14 13 13 13 13 13 13 12 12 12 11 11 12 11 11 11 10 10 11 10 10 8 8 9 11 11 11 11 12 12 10 10 8 10 9 13 12
6 6 5 6 8 7 8 10 11 11 10 10 11 11 11 12 12 12 11 10 8 8 9 8 7 8 8 9 9 8 8 9 9 8 8 8 8 9 9 9 10 10 12 12 14 13 13 13 13 13 13 13 13 13 12 11 10 10 10 10 10 10 10 9 8 9 10 9 10 8 5 6 7 10 10 11 11 12 10 11 11 14 14 12 14
6 6 6 5 6 6 8 8 11 8 8 9 11 11 11 12 12 12 11 10 10 9 9 9 7 7 8 8 8 8 8 8 8 8 8 7 8 9 8 9 9 10 11 11 11 11 12 13 13 13 12 12 12 12 11 10 10 9 8 8 9 9 8 7 6 7 8 9 8 5 6 6 5 8 9 11 11 11 9 11 12 12 13 14 13
7 6 6 5 5 5 8 8 11 9 7 8 9 11 11 11 11 11 11 10 9 9 9 8 9 8 8 8 8 7 7 7 7 7 7 7 7 8 8 7 8 9 10 11 11 11 11 13 13 13 13 13 12 12 11 10 10 9 8 8 8 8 7 6 6 7 8 8 7 6 5 5 6 5 10 10 11 11 10 12 12 12 12 13 12
6 6 5 6 5 4 7 9 9 11 8 8 10 11 11 10 10 11 10 10 10 9 8 7 8 8 8 8 8 8 8 7 7 7 6 6 6 7 7 7 8 9 10 11 11 11 12 13 12 12 12 12 11 11 11 10 10 10 9 8 7 6 7 7 7 7 7 4 5 4 3 4 5 4 7 8 11 11 11 12 12 12 12 12 12
4 5 5 5 6 4 5 7 9 9 9 9 10 11 11 11 10 10 10 10 9 9 9 8 7 8 8 8 8 8 8 7 7 6 6 6 5 5 6 6 8 7 9 10 11 11 11 11 11 12 12 12 11 11 10 10 10 9 9 8 8 7 7 7 8 8 8 5 4 4 3 4 4 3 7 8 9 10 10 11 11 10 11 12 9
5 6 5 6 6 5 4 5 7 9 10 8 9 9 11 11 11 10 10 9 8 8 8 8 8 7 7 7 7 7 7 7 7 6 6 6 5 4 6 7 7 7 7 9 10 11 10 9 10 11 11 11 10 10 10 9 9 9 9 9 8 8 7 8 9 8 6 4 4 4 4 4 4 4 7 9 10 10 10 8 8 9 10 10 9
5 4 5 5 4 6 5 6 6 9 10 9 9 9 11 10 11 11 10 9 8 7 7 7 8 8 6 7 7 7 7 7 6 6 6 6 4 5 6 7 6 7 6 7 9 8 7 6 8 9 10 10 10 10 9 9 9 9 9 9 8 8 8 8 8 7 4 4 3 4 5 4 3 4 7 9 10 10 8 6 6 6 7 7 10
5 5 5 5 6 7 8 8 6 9 10 9 10 10 11 10 10 10 9 9 8 7 6 6 7 7 7 6 6 6 6 7 6 6 5 5 4 5 6 7 7 6 4 5 6 8 6 6 8 9 10 11 10 10 9 9 9 9 8 8 8 8 8 8 7 4 3 3 3 4 4 5 4 4 6 8 8 8 7 6 4 4 6 7 8
7 4 4 5 6 8 8 8 6 7 9 8 9 10 10 11 11 10 9 9 8 7 6 7 7 7 7 7 7 7 5 5 6 5 5 5 4 5 6 8 7 4 7 9 9 9 12 11 9 9 11 11 11 10 9 9 8 8 8 8 8 8 8 7 4 3 3 3 4 3 3 3 3 5 8 9 9 10 9 7 6 6 7 8 8
6 4 3 3 5 6 7 7 6 6 8 8 10 10 10 11 11 10 9 8 9 7 8 6 6 7 7 7 6 6 5 5 5 5 5 5 5 5 7 8 6 7 9 10 10 9 7 7 9 10 10 11 10 10 9 9 8 8 7 8 8 8 8 7 3 3 3 3 3 3 3 2 2 5 5 7 9 10 10 9 8 9 7 7 8
4 2 1 2 3 3 5 5 5 4 7 8 9 9 9 9 10 10 9 9 8 6 7 7 7 6 7 6 6 5 4 5 6 6 5 5 6 7 8 8 7 7 8 8 7 6 7 9 9 9 10 10 10 10 9 8 8 8 8 8 9 9 7 5 4 3 4 3 3 3 3 3 3 7 3 5 6 8 9 9 10 10 9 8 10
3 2 1 1 0 2 4 4 4 4 4 6 7 8 8 9 9 9 9 8 7 6 5 6 5 7 7 6 6 6 5 6 6 6 7 6 6 8 9 8 8 8 8 7 5 5 5 9 8 10 10 9 9 9 9 8 9 8 8 8 9 8 7 3 3 3 3 3 3 3 3 3 6 5 5 4 5 6 7 7 8 9 8 9 9
4 3 2 1 1 1 3 4 4 3 3 5 7 7 7 7 7 7 6 6 5 6 6 5 5 5 6 6 6 3 5 6 6 7 6 6 6 7 7 7 7 8 7 5 4 5 9 9 10 9 9 9 9 9 8 8 8 8 8 8 8 8 7 3 3 3 3 3 3 3 4 4 8 6 1 6 7 6 4 6 7 7 6 7 8
3 4 3 2 1 0 2 4 5 4 3 4 7 8 7 7 8 8 6 6 6 5 5 5 4 4 3 3 2 1 4 4 6 5 5 4 6 6 5 5 6 6 6 6 8 10 10 10 9 8 8 8 9 8 8 8 8 8 7 7 8 8 7 4 3 3 3 3 3 3 3 4 8 7 5 7 6 6 6 6 6 7 6 5 5
6 3 3 2 1 1 1 3 4 4 4 3 5 8 9 8 7 8 6 6 6 6 5 5 5 4 4 2 2 3 4 3 4 4 5 5 3 4 3 4 4 5 7 8 10 9 9 9 9 8 8 9 9 8 8 8 8 8 7 8 8 8 7 5 3 2 3 3 3 3 3 7 7 8 4 1 5 5 5 6 7 7 6 5 5
8 7 5 4 3 1 1 2 4 5 6 5 4 5 8 9 8 7 7 7 6 7 5 5 4 2 2 5 4 4 4 4 4 2 4 4 4 3 4 5 6 5 6 8 10 10 9 8 8 8 8 9 9 8 8 8 9 8 8 7 7 6 6 3 3 3 3 3 3 3 4 9 5 6 8 9 6 3 4 5 5 6 6 5 5
6 9 8 7 5 2 1 2 4 5 5 6 4 5 6 9 9 8 9 8 7 7 7 5 4 4 5 5 5 3 4 4 5 2 3 4 4 4 6 5 5 5 6 12 11 9 8 8 8 8 9 9 9 9 8 9 9 8 7 7 6 4 3 2 2 3 2 3 3 2 7 9 5 3 5 6 5 5 4 4 4 4 4 4 5
7 7 7 7 9 7 3 2 5 5 5 6 5 5 4 6 6 10 9 9 9 8 7 6 6 6 6 6 5 2 2 4 4 3 5 4 4 6 4 3 3 5 7 12 11 10 8 8 8 8 9 9 9 8 8 8 8 8 7 6 5 3 2 2 2 2 2 2 3 2 9 7 6 4 3 3 4 4 4 4 4 3 3 3 3
7 7 7 8 8 7 9 6 4 6 7 6 5 5 5 5 6 4 5 7 7 7 6 5 6 4 5 5 3 3 3 3 3 4 2 4 4 5 4 6 5 7 9 10 11 11 10 9 8 8 8 8 7 4 3 5 8 8 7 6 3 2 2 2 3 2 3 4 3 5 11 8 6 4 4 3 4 4 4 4 3 3 3 3 4
8 8 7 8 6 6 6 7 8 5 6 6 5 5 6 5 4 5 5 3 5 6 4 5 4 4 5 4 4 4 4 4 4 3 4 4 3 6 6 4 6 5 3 6 11 12 12 9 9 8 8 6 4 2 2 2 3 6 6 4 3 3 2 3 2 2 3 2 3 8 11 9 7 5 4 3 3 3 4 4 3 3 2 3 2
7 6 8 6 6 6 7 6 6 8 6 6 4 4 5 5 4 3 3 6 6 3 4 5 4 5 4 4 4 4 4 3 5 7 5 5 4 5 2 6 10 7 4 5 10 11 13 12 10 9 4 2 2 2 2 2 2 2 2 3 3 3 3 3 2 2 2 3 3 9 11 11 9 6 5 3 3 2 4 4 3 2 2 2 1
6 7 5 7 8 7 7 6 7 6 6 6 5 4 3 4 5 6 4 2 2 6 7 5 6 6 6 6 5 4 4 4 4 3 4 4 4 3 5 4 4 4 4 3 4 6 6 5 4 4 3 3 2 1 1 2 2 2 2 2 2 3 2 2 2 2 2 3 3 10 10 11 11 9 7 6 4 3 3 4 4 2 1 1 2
5 5 7 8 8 7 6 6 5 5 5 4 5 3 4 3 3 4 6 5 5 3 3 3 4 4 5 6 6 6 6 6 6 5 6 5 4 3 2 1 2 4 6 6 5 4 3 4 5 4 3 2 3 2 1 1 2 2 2 2 2 2 2 2 2 2 2 3 4 9 10 11 12 11 10 8 7 5 3 4 4 4 3 2 2
7 7 7 6 7 8 7 6 5 4 3 5 3 2 3 3 3 2 3 5 8 8 4 4 3 3 5 4 3 4 5 5 5 6 5 4 3 4 5 4 2 1 2 5 4 3 4 4 3 3 3 4 3 2 2 2 1 2 2 2 1 2 1 1 2 2 2 2 3 8 10 10 11 12 11 11 9 7 6 4 5 5 5 4 3
5 7 7 7 7 10 8 6 3 2 2 3 3 1 2 3 2 5 7 4 2 2 1 1 1 2 3 3 5 4 4 5 4 4 6 5 4 3 3 4 6 4 1 2 5 3 3 3 3 3 4 3 3 2 2 2 2 1 2 2 1 1 1 1 1 1 1 1 3 6 9 10 11 12 13 12 11 10 9 6 5 5 6 7 4
8 9 8 9 9 8 8 7 3 3 3 2 3 3 3 3 3 3 3 5 4 3 2 3 4 2 2 0 4 4 3 3 5 5 3 1 1 2 2 1 2 3 3 3 2 5 3 3 2 3 3 3 2 2 1 2 1 1 1 1 1 1 1 1 1 1 1 1 1 3 8 9 10 11 12 13 12 12 10 9 6 6 6 6 7
9 8 8 8 8 10 9 8 5 2 4 3 4 5 4 4 4 4 1 3 5 6 3 1 2 2 2 1 2 3 4 4 2 1 3 4 3 2 3 2 1 2 3 4 3 4 4 3 3 3 4 3 2 2 1 1 1 1 1 1 1 1 1 1 0 1 0 1 1 2 4 7 8 10 11 11 12 12 12 10 10 8 8 8 7
7 8 8 8 7 9 9 9 7 4 3 5 5 5 5 4 4 3 5 4 2 4 6 6 6 6 4 0 2 4 3 3 4 3 3 2 2 2 1 1 2 0 1 1 1 1 1 3 4 6 6 4 3 2 1 1 1 1 1 1 1 1 1 1 1 0 0 0 0 1 2 4 7 8 9 10 11 12 12 12 11 10 9 10 10
7 8 7 7 7 9 8 10 8 7 8 8 7 8 8 8 7 7 8 7 9 8 8 7 8 7 9 9 8 7 5 1 3 4 3 2 2 2 1 1 2 3 2 2 1 2 1 2 0 1 3 3 3 3 2 2 1 1 0 1 1 1 1 1 1 1 1 1 1 1 1 2 4 6 7 9 10 11 12 13 13 12 13 12 10
5 6 7 6 9 7 7 9 8 9 10 10 9 9 9 9 9 9 8 8 9 8 8 8 7 7 9 8 8 8 7 6 6 5 3 3 3 2 1 3 4 3 2 2 3 3 2 2 2 2 2 1 3 3 2 1 1 1 1 1 0 0 1 1 1 1 2 1 1 1 1 1 1 2 4 6 9 10 11 12 13 14 13 12 11
6 6 7 8 6 5 5 6 9 10 10 9 9 9 9 9 8 7 8 9 8 9 9 8 8 8 8 8 8 8 6 7 7 7 6 6 6 5 4 4 4 4 4 4 3 3 2 2 2 2 2 0 0 1 1 1 1 1 1 1 1 0 0 1 1 1 1 1 1 1 2 2 1 1 1 3 5 7 9 10 12 13 14 14 13
6 7 8 8 8 7 6 6 9 10 12 12 11 10 10 9 8 8 9 8 8 8 8 7 7 8 9 10 9 9 7 8 7 6 7 6 6 5 6 5 4 4 4 3 3 4 4 4 3 3 2 2 3 3 3 2 2 2 2 2 2 2 1 1 1 1 1 1 1 1 1 1 1 2 1 1 1 3 5 8 10 11 12 13 14
9 8 7 7 8 8 8 10 10 11 10 10 9 9 10 10 9 9 9 9 9 9 9 9 9 8 10 10 10 10 11 11 10 8 7 7 6 6 5 4 4 6 5 5 6 5 4 4 4 4 3 3 2 2 2 3 3 3 3 2 1 1 2 1 2 2 1 1 1 2 1 1 2 2 2 1 1 1 3 5 6 9 10 11 12
8 9 8 7 8 9 8 9 10 9 9 11 11 11 11 11 11 10 10 10 10 10 9 8 8 9 9 9 10 10 10 10 11 10 8 8 8 7 6 5 5 6 6 4 4 3 4 5 5 5 4 3 4 4 3 3 3 3 3 4 3 3 3 2 2 2 1 2 2 2 2 2 2 2 2 1 1 1 2 4 6 7 7 8 10
8 8 7 6 7 7 7 7 7 7 7 8 10 10 9 10 10 10 11 12 10 8 7 7 9 8 8 8 9 10 11 12 10 9 8 8 8 8 8 8 8 6 5 4 5 4 4 4 4 3 3 4 3 4 3 2 2 3 3 3 4 3 4 3 3 2 2 3 2 2 2 2 2 2 1 1 1 2 2 2 4 5 5 6 9
6 8 7 7 7 7 6 8 8 7 7 8 8 8 10 11 9 10 11 10 9 8 7 9 9 8 9 9 10 9 9 10 9 8 8 8 8 9 9 9 7 6 6 6 7 6 4 4 4 3 4 5 3 2 2 2 3 3 4 4 3 4 3 3 3 3 3 4 4 3 2 2 2 2 2 2 2 2 2 2 2 3 3 5 8
6 6 8 8 8 7 6 7 8 6 5 7 6 8 8 7 8 8 10 9 8 8 10 9 8 9 8 9 9 9 9 9 8 8 9 8 8 9 9 9 8 7 8 8 6 5 5 5 6 4 3 3 3 4 3 3 3 4 4 4 3 4 4 3 3 3 4 4 4 3 4 3 2 3 3 2 2 2 2 3 2 3 3 4 6
7 8 8 9 8 7 7 10 7 6 5 6 6 6 7 8 9 10 8 6 8 8 10 9 10 9 9 10 10 9 9 9 9 9 10 10 9 9 8 8 8 8 8 8 6 6 5 4 3 5 6 7 6 5 4 2 3 4 2 4 5 1 3 3 3 4 3 3 2 3 3 4 3 3 3 3 3 3 3 3 2 3 3 3 4
8 8 9 8 7 7 9 6 5 6 8 7 7 9 7 7 9 7 8 7 7 9 9 9 9 8 11 10 9 9 10 10 9 9 9 9 8 8 8 8 7 7 7 6 7 7 8 8 4 4 4 5 4 4 5 4 3 6 6 6 2 4 3 3 4 3 4 3 3 3 3 3 4 4 3 3 3 3 3 3 3 3 3 3 4
5 8 7 7 8 7 6 5 6 7 7 6 7 8 6 6 7 5 6 8 7 7 8 7 8 10 11 11 10 10 10 10 10 10 9 9 8 8 8 7 8 6 7 8 8 9 8 8 8 5 4 4 4 4 6 5 4 4 2 2 3 6 2 3 2 10 8 4 3 2 2 3 4 3 3 3 3 4 3 3 4 4 5 4 4
6 7 8 7 5 6 6 6 7 7 7 7 9 9 10 10 10 9 9 8 7 6 8 8 9 11 12 10 10 9 10 10 10 10 9 9 9 9 7 8 8 8 7 8 9 9 8 8 7 7 3 6 5 6 7 6 4 5 4 3 3 2 6 3 8 9 4 2 2 3 2 3 3 3 3 4 5 5 4 4 5 5 5 5 5
7 7 7 6 4 6 6 6 6 6 5 6 7 7 8 8 7 8 6 7 7 7 8 10 9 9 10 11 10 10 11 10 10 11 10 10 10 9 9 8 9 9 8 8 8 8 8 7 8 7 8 5 5 4 6 6 7 6 3 3 3 2 2 7 11 4 3 10 7 4 3 4 4 5 4 4 4 3 4 4 4 5 5 5 5
7 6 5 5 5 5 6 6 6 6 6 6 4 4 5 6 5 6 8 8 10 9 10 8 8 9 9 7 10 11 10 11 10 10 11 10 10 10 10 10 10 9 8 8 7 8 10 9 8 7 8 8 4 5 6 6 7 8 7 4 1 1 5 6 5 8 3 3 1 2 5 5 3 4 3 4 5 4 3 4 4 5 5 5 5
6 5 5 6 5 5 5 5 6 6 6 6 5 5 8 8 10 10 9 8 11 6 5 5 6 6 6 9 8 10 10 10 11 10 10 10 10 10 10 9 9 9 8 8 9 9 8 8 7 8 7 6 6 7 7 6 2 6 6 6 4 2 2 3 5 6 11 2 2 4 6 3 4 5 6 5 5 4 4 3 4 5 5 5 5
4 4 5 5 6 6 6 6 5 6 6 5 7 5 8 8 10 10 8 8 9 9 6 6 5 5 8 8 8 8 9 9 9 10 10 10 9 10 9 9 9 9 8 8 8 7 7 7 8 8 7 7 7 6 6 6 6 5 5 5 4 3 2 1 1 3 4 9 13 1 3 2 5 5 5 5 5 5 5 5 5 6 5 5 5
5 5 5 5 5 5 6 7 8 7 6 8 8 8 7 7 8 8 11 7 8 7 6 5 6 5 10 7 8 7 8 9 10 9 10 10 10 9 9 10 10 9 8 8 8 8 9 9 10 9 8 7 7 6 6 6 6 5 5 6 5 6 4 3 3 3 2 7 8 10 13 5 3 2 2 3 4 3 4 6 6 7 6 6 6
4 4 5 5 5 5 7 9 9 7 6 8 8 9 8 6 9 8 12 8 6 6 6 7 6 5 9 8 7 7 7 8 9 9 10 10 10 10 9 10 10 9 8 9 8 9 9 9 8 8 8 8 6 6 6 5 4 4 5 4 5 5 3 3 3 5 2 2 6 10 10 14 14 5 6 6 4 6 7 7 8 7 6 6 5
4 5 5 5 5 5 5 10 8 6 6 7 7 9 7 6 8 9 10 10 8 7 8 7 5 6 7 7 7 7 7 7 7 8 9 8 9 9 9 8 8 8 8 9 8 7 7 7 6 8 9 9 6 6 6 5 4 4 5 5 4 4 3 4 5 4 4 4 6 6 8 9 10 15 7 6 9 9 7 5 6 5 6 6 6
Wind_Direction
225 220 211 203 191 195 161 169 167 160 152 154 153 150 144 135 130 122 122 125 121 120 118 122 119 116 114 112 108 103 103 100 100 94 90 85 82 74 61 72 79 81 82 83 82 77 72 69 66 64 64 63 62 60 56 54 50 50 50 49 50 51 51 51 49 44 45 59 67 72 70 71 72 72 72 70 65 54 41 38 33 56 56 61 62
182 199 203 197 196 197 166 169 169 162 158 159 154 154 148 137 131 126 126 132 128 125 126 126 121 119 117 115 113 110 108 105 99 93 83 75 74 69 63 71 76 83 85 84 80 76 73 70 64 61 58 55 53 52 50 49 49 49 49 49 48 49 49 50 49 47 44 46 44 49 56 73 72 74 74 73 69 57 40 39 32 47 55 55 57
231 172 194 199 192 198 176 171 169 165 165 161 156 156 151 143 135 133 134 138 135 132 128 127 126 123 121 116 118 114 111 105 100 89 84 77 72 71 70 73 88 92 86 83 84 80 77 75 70 62 56 52 50 48 47 46 46 47 49 50 49 49 50 50 49 50 48 43 43 38 35 52 70 74 77 77 73 63 47 41 32 59 54 56 56
173 172 186 189 195 197 175 171 171 169 165 162 158 157 151 145 140 138 142 143 144 140 133 128 129 127 122 123 120 116 110 103 96 88 80 71 66 62 62 68 83 90 86 84 83 84 81 76 72 68 59 50 46 46 44 43 43 46 49 52 53 53 56 55 55 58 55 49 47 44 48 65 71 71 77 79 77 69 61 53 45 50 59 58 56
170 161 178 183 188 191 178 170 162 171 167 156 158 157 155 147 144 143 145 145 145 145 141 136 138 131 129 125 121 118 111 106 99 92 83 75 67 63 62 70 81 92 93 87 84 78 79 77 69 65 60 51 45 43 42 41 41 42 45 51 57 61 62 63 67 73 71 63 61 54 64 62 53 74 80 84 77 73 67 65 59 54 49 52 55
173 159 169 180 178 184 177 170 158 170 169 153 157 159 154 149 147 146 147 148 148 148 146 148 143 142 137 133 129 123 118 112 105 98 83 71 66 62 63 77 90 92 88 88 81 74 69 71 67 59 55 50 43 40 39 39 40 40 39 43 54 63 64 67 80 87 80 78 66 74 56 41 54 46 64 70 78 72 67 65 63 55 52 50 48
171 162 161 172 180 180 174 170 160 168 166 156 159 161 156 150 150 150 153 156 154 153 150 146 148 148 146 143 138 130 127 123 117 106 89 76 64 61 64 79 92 92 94 84 75 67 64 66 64 58 51 48 45 42 37 37 39 39 40 42 44 56 69 72 81 82 80 80 89 81 53 36 41 54 62 73 71 75 73 68 64 61 56 51 45
144 161 160 163 177 178 181 167 168 166 168 158 164 161 160 156 155 156 158 158 160 162 153 150 154 157 154 146 145 140 132 132 126 116 102 91 78 72 78 91 93 98 87 80 78 71 62 60 61 60 54 48 45 44 42 40 38 39 43 45 43 42 65 80 87 84 78 82 85 75 51 54 55 61 80 83 81 73 70 72 68 63 60 59 47
148 161 154 164 170 161 183 176 166 166 172 157 165 163 167 160 159 162 163 164 164 168 160 155 158 162 159 152 148 142 137 131 122 118 109 101 93 91 92 91 94 92 89 83 82 74 67 65 59 59 57 54 51 48 45 43 40 40 43 46 47 46 55 80 85 84 81 85 85 74 65 64 66 65 87 89 76 74 72 70 72 68 70 68 63
150 153 153 154 157 166 173 184 171 165 176 165 162 169 170 167 165 167 168 167 170 168 162 160 162 158 168 157 156 149 143 141 137 128 122 118 108 105 108 107 112 110 89 84 81 77 70 39 45 63 56 55 52 51 47 41 39 39 43 48 54 55 59 70 81 80 88 86 74 66 53 29 79 78 80 81 83 80 67 56 62 71 76 76 72
155 159 159 155 163 168 181 185 174 170 176 165 169 175 175 172 171 173 170 171 174 172 161 167 166 163 161 164 161 160 158 152 142 134 128 126 127 121 119 119 115 98 103 73 51 51 32 59 60 56 54 51 49 48 47 42 38 41 43 51 57 60 63 68 81 79 50 53 59 57 49 17 62 68 79 82 84 78 57 52 46 95 91 85 76
162 159 165 165 165 170 186 185 182 175 171 168 170 179 182 178 175 177 174 175 181 172 166 178 175 173 168 175 176 168 169 156 145 144 141 130 133 129 126 120 116 113 65 60 49 46 64 71 76 55 54 50 49 46 43 40 37 39 43 48 56 57 58 62 77 73 54 45 50 29 38 49 53 70 76 73 73 71 69 63 61 70 80 80 76
161 163 161 162 172 176 186 186 184 182 175 170 175 180 186 181 179 180 181 187 189 182 174 184 191 177 180 185 179 174 179 163 157 157 145 140 132 137 123 123 115 94 82 72 70 68 49 59 73 64 57 55 53 46 41 37 34 36 41 45 51 50 53 44 55 63 67 54 39 24 15 20 349 322 70 60 60 60 60 57 60 62 67 72 77
148 152 139 164 167 182 190 195 187 191 184 175 177 181 185 182 186 185 184 189 190 180 194 187 189 192 196 195 196 191 184 153 164 167 160 150 142 138 136 130 115 101 88 79 75 43 81 86 83 71 66 62 59 50 45 39 37 39 39 44 46 47 38 45 40 48 55 44 24 15 11 2 352 326 73 60 55 55 55 57 58 61 59 63 72
133 65 35 34 106 193 205 206 196 202 196 181 180 184 192 193 196 190 191 192 180 162 196 191 193 204 201 201 204 198 187 165 181 177 168 164 154 151 151 143 130 112 97 90 70 71 43 98 87 79 76 70 64 60 50 45 43 46 45 44 48 46 39 48 42 43 42 33 20 12 15 359 337 335 94 80 67 61 59 56 54 52 54 51 62
132 134 97 74 73 270 214 212 214 209 215 189 182 185 199 199 192 199 193 194 187 167 189 203 198 204 214 218 216 208 170 179 170 200 182 173 161 154 158 140 126 114 109 95 63 49 94 98 88 84 79 72 67 63 59 52 50 52 51 46 47 47 42 33 53 39 37 31 16 15 8 358 339 347 114 97 72 62 51 55 54 51 44 42 46
97 120 124 81 76 42 228 220 215 206 214 215 188 180 191 195 194 192 187 185 183 173 189 204 211 205 207 220 219 111 156 166 173 193 199 209 162 156 171 149 130 127 113 54 63 86 101 101 98 92 81 74 70 68 67 59 56 56 56 52 46 47 42 26 47 37 29 27 20 8 5 9 4 12 35 73 77 60 48 48 47 47 35 30 20
43 57 86 100 78 76 251 223 223 220 215 209 212 190 181 195 194 197 188 176 176 173 182 196 210 222 196 167 104 151 155 158 147 188 183 196 179 148 178 147 149 134 93 85 100 103 105 105 104 95 85 78 71 65 67 61 59 58 56 53 49 43 41 35 45 29 24 15 17 6 8 353 7 31 30 45 88 67 52 51 46 40 34 19 16
30 27 23 29 33 18 210 218 219 220 220 222 210 207 190 186 191 188 186 181 176 176 178 183 199 209 146 123 130 146 147 128 124 156 177 194 155 145 178 179 182 154 107 99 110 106 106 106 103 95 87 80 71 62 61 65 63 61 57 53 50 45 39 37 39 27 18 26 12 7 4 348 29 47 57 64 73 54 53 46 40 40 28 23 24
28 23 15 12 348 331 287 226 225 212 211 215 216 209 205 192 188 186 184 180 179 181 180 171 180 168 137 129 129 130 147 126 132 118 161 197 165 172 195 191 180 158 124 108 113 113 115 111 101 93 86 78 72 64 57 63 61 61 60 55 50 47 42 35 29 34 21 23 6 2 356 355 13 35 50 53 52 62 49 43 43 19 22 29 20
6 9 11 355 345 335 308 237 236 229 212 202 202 205 199 196 198 190 190 184 180 185 183 177 168 158 140 128 116 125 164 135 148 166 173 159 177 185 198 171 96 85 104 117 125 125 121 110 99 94 87 84 75 63 49 52 58 59 59 51 51 50 38 30 26 26 27 4 359 9 347 3 4 6 2 15 20 28 35 22 16 22 36 24 13
346 345 357 358 351 346 334 300 235 240 225 215 195 192 180 191 203 204 190 190 189 184 191 197 177 178 144 144 155 173 173 154 150 153 170 153 183 177 186 134 134 132 133 141 133 125 120 109 103 95 90 84 76 73 52 36 42 49 49 45 44 43 30 24 23 20 9 4 353 350 346 3 1 2 13 16 17 20 8 9 5 2 16 26 20
353 347 341 350 349 332 336 337 316 244 241 224 210 192 179 176 185 191 189 197 196 185 195 192 195 183 182 174 159 182 178 161 158 152 168 151 196 190 159 123 116 133 141 131 127 125 119 114 111 103 93 82 71 72 69 54 31 38 42 32 34 25 18 22 26 19 12 355 338 348 344 357 0 354 340 349 1 14 19 12 7 8 20 7 2
338 335 324 326 337 337 333 320 313 310 228 239 224 202 194 180 175 177 195 190 183 211 191 184 207 174 177 188 187 194 187 177 153 166 160 156 186 194 228 166 138 134 133 128 126 130 129 135 125 109 93 62 80 74 82 81 59 34 45 43 33 18 17 11 14 8 2 355 328 347 347 349 353 349 334 331 341 2 2 344 347 343 349 35 9
324 311 319 333 334 331 329 319 319 304 287 213 224 217 178 169 182 191 206 211 235 192 186 204 198 202 199 194 188 183 188 185 175 176 198 174 190 185 172 197 149 133 129 111 125 132 129 106 97 102 130 114 102 88 106 95 69 65 51 45 45 30 18 15 2 358 2 356 350 349 351 346 343 344 340 331 325 347 334 328 321 327 339 357 355
317 340 339 329 329 327 321 312 300 288 288 241 211 192 172 187 170 179 180 226 259 247 265 184 206 214 202 200 194 192 199 195 192 191 199 179 173 156 155 165 195 148 148 144 157 138 110 131 136 135 129 115 108 112 79 88 107 72 70 54 45 39 26 10 6 359 1 354 350 350 353 349 342 338 334 333 326 315 322 318 318 309 304 315 322
345 339 329 324 326 332 335 326 299 278 264 272 158 164 175 159 158 131 214 204 201 223 194 189 206 233 211 191 191 208 202 208 203 196 194 179 164 176 165 149 169 314 213 149 148 143 154 149 148 139 135 129 112 109 103 82 72 100 81 70 55 48 36 15 2 356 353 355 345 351 355 351 345 340 335 329 326 321 304 300 297 298 284 265 295
331 338 338 330 336 339 333 330 324 239 193 266 154 134 133 133 119 164 226 215 71 25 47 63 48 176 229 222 207 209 204 201 200 191 198 186 177 160 150 162 172 162 355 306 138 167 143 142 144 147 137 118 125 121 115 95 77 53 80 63 65 59 40 30 8 353 346 353 351 354 352 351 349 344 341 334 325 321 314 300 288 289 297 299 208
352 350 338 344 340 330 337 352 38 126 143 48 106 96 76 82 79 26 26 4 341 355 14 75 75 35 19 92 210 202 220 223 207 191 107 76 105 144 136 163 152 134 148 206 185 143 155 162 155 124 103 116 130 123 107 99 92 70 55 65 33 37 46 48 46 7 5 350 350 -0 352 353 351 347 342 339 336 328 322 312 296 278 287 285 294
349 331 341 341 335 332 349 356 19 103 121 112 89 88 83 74 62 52 9 39 332 299 347 36 101 75 77 136 208 196 206 160 163 328 144 140 134 97 106 117 154 140 170 193 220 164 164 136 120 130 132 130 138 126 134 98 74 57 50 57 74 36 30 8 27 39 30 0 355 337 358 356 352 347 345 340 335 333 329 319 307 295 285 287 288
336 345 346 344 332 343 355 3 17 26 92 104 100 96 85 87 64 57 29 13 32 8 21 4 9 14 344 208 178 139 138 128 144 151 106 124 95 106 116 128 178 136 231 265 107 9 126 141 157 170 148 155 154 125 136 138 96 74 32 19 28 10 40 21 332 338 5 27 0 349 343 358 351 347 346 342 338 337 336 334 323 308 294 295 292
349 348 343 330 354 1 3 18 24 44 61 63 64 63 59 55 48 49 47 40 43 40 39 29 30 25 26 22 23 25 11 358 111 130 113 93 68 70 69 163 157 120 94 89 58 33 35 55 38 34 116 160 134 132 143 166 154 112 103 58 31 14 4 358 338 330 320 330 332 337 348 339 344 347 347 345 339 338 339 336 331 331 330 330 326
340 331 331 348 13 3 16 29 39 49 59 64 66 66 64 59 62 56 53 55 50 50 42 32 34 31 30 21 34 30 28 32 19 21 47 75 94 86 58 20 23 33 27 55 97 96 100 114 64 76 73 64 113 127 135 147 173 137 139 93 57 37 14 318 319 304 313 323 339 335 326 325 318 340 345 343 345 342 339 336 337 337 337 334 329
334 341 339 10 1 352 17 41 51 59 62 66 68 69 66 69 65 63 63 63 57 57 49 40 32 40 35 23 31 35 26 36 41 48 46 53 48 48 43 37 37 63 64 39 35 18 18 10 35 23 41 16 173 80 62 334 16 18 354 16 288 314 317 286 279 301 312 307 335 321 312 307 314 320 328 339 346 342 340 336 335 339 337 338 340
340 347 3 352 6 12 17 52 59 69 72 75 77 77 75 72 68 66 59 60 63 61 58 55 49 38 33 30 24 33 27 36 47 64 56 60 63 56 44 39 49 55 59 56 67 53 48 42 18 -0 15 14 23 33 23 10 338 335 329 330 321 313 279 287 287 273 273 294 289 284 266 280 292 295 301 294 325 326 333 337 335 334 335 340 341
354 349 350 355 22 20 27 61 58 65 66 70 71 72 72 68 66 64 63 57 58 54 48 41 40 41 40 37 22 29 33 27 28 27 50 53 66 64 52 52 67 72 59 41 51 47 46 65 44 27 355 4 -0 34 23 4 349 327 328 312 295 276 282 275 282 271 235 249 246 245 242 250 253 264 279 291 302 305 311 325 330 330 334 339 337
350 354 358 355 26 21 24 29 39 46 63 70 70 70 71 70 69 67 65 57 52 51 49 47 45 43 38 36 24 26 32 33 34 29 37 39 46 54 52 55 62 69 67 64 77 80 81 84 52 33 27 24 16 11 26 18 353 323 313 315 315 318 293 279 249 245 219 241 241 238 252 244 237 244 255 276 291 298 305 317 326 334 337 334 329
356 360 359 3 25 22 26 30 36 43 54 62 69 72 71 72 68 66 63 62 57 55 52 51 48 46 43 39 31 34 32 31 31 28 35 33 41 47 43 42 44 51 60 53 57 45 48 64 72 38 76 96 55 6 6 357 322 304 306 306 302 295 290 284 287 281 268 264 237 250 261 275 278 271 278 285 290 297 302 315 331 326 326 327 322
3 6 5 12 26 29 30 33 34 35 50 59 64 72 74 75 70 64 57 55 52 47 46 51 44 44 41 35 36 38 33 34 31 34 42 39 35 34 38 34 38 45 52 55 47 42 59 64 79 57 27 38 70 65 341 324 317 308 301 302 300 279 283 273 279 284 300 318 325 313 300 292 306 316 320 315 304 305 316 324 318 313 311 322 317
15 8 19 23 23 28 30 42 29 23 49 63 70 75 69 58 65 60 53 47 46 48 45 48 42 45 38 41 41 45 39 43 38 37 46 41 42 36 39 33 35 41 43 43 39 35 35 45 52 49 63 83 62 23 354 340 319 310 319 308 269 286 282 310 291 306 341 328 314 310 307 332 320 321 319 311 318 331 330 321 307 301 304 301 302
27 17 27 25 23 23 32 39 19 23 43 58 52 53 68 79 64 58 66 46 55 57 54 47 50 45 39 41 40 41 37 41 36 41 43 48 46 41 39 37 39 45 47 43 30 38 41 45 77 48 44 49 30 6 3 325 353 350 333 309 315 317 284 295 340 356 324 309 295 300 347 331 312 325 340 335 334 329 307 296 291 286 282 291 286
11 18 30 18 19 23 42 35 24 42 50 58 77 69 59 62 90 79 82 58 46 47 52 44 46 46 43 40 41 38 40 42 36 40 45 46 50 49 45 42 39 49 56 49 42 38 34 33 24 68 42 61 56 1 356 335 44 1 328 330 323 315 303 43 31 14 335 304 343 348 333 312 334 352 340 323 310 303 300 300 296 293 290 291 289
14 29 17 26 23 28 32 34 35 49 52 57 69 79 74 71 82 91 80 85 60 62 67 59 51 53 46 42 38 37 37 40 35 38 44 40 46 50 46 44 42 36 47 43 38 39 32 35 31 42 58 48 73 31 21 35 19 324 250 293 346 338 1 33 352 342 328 360 338 342 340 332 345 349 331 317 314 316 313 317 306 302 303 294 296
20 23 18 23 24 28 23 30 39 44 56 60 79 82 85 90 83 87 78 75 82 73 71 57 51 49 47 41 41 39 40 44 38 39 44 43 40 44 43 43 41 35 42 47 38 35 28 27 27 33 31 59 37 36 24 24 41 359 18 356 315 327 326 43 342 306 312 263 19 344 25 345 339 346 335 334 333 328 320 319 305 306 298 298 293
18 19 9 17 26 23 22 34 45 47 45 52 76 98 105 94 94 90 94 94 68 58 57 47 43 49 52 38 35 35 39 42 39 40 42 44 41 40 42 41 41 34 37 43 41 34 31 29 19 31 28 42 52 29 27 29 46 36 50 358 351 358 16 319 322 306 32 344 324 13 355 2 2 358 354 333 322 308 312 309 305 298 295 293 287
18 2 359 13 23 29 30 40 54 49 48 46 52 71 77 92 105 93 74 68 58 42 45 45 41 42 50 48 43 37 38 43 39 38 39 39 41 38 38 40 37 34 33 40 36 32 28 27 20 24 30 21 52 43 36 30 38 37 37 66 71 333 330 317 355 319 312 242 337 354 16 341 26 356 338 317 315 313 311 300 298 295 292 288 285
9 351 7 20 28 41 45 50 59 58 47 49 47 86 84 80 79 81 88 86 98 71 68 58 70 66 63 55 53 45 38 44 42 40 41 41 44 41 41 43 43 41 33 39 37 32 29 26 16 29 26 21 27 59 34 3 9 38 26 38 43 26 272 327 347 321 330 356 145 346 329 6 12 336 316 308 300 302 298 293 290 286 284 275 276
345 11 28 20 37 42 52 59 59 62 51 61 68 55 91 89 92 87 82 86 86 104 90 79 68 71 68 56 54 50 45 43 44 42 40 41 43 45 41 44 47 41 39 43 41 29 32 30 31 31 35 31 25 46 46 23 36 15 4 23 29 18 6 295 65 347 306 313 319 282 161 331 326 305 291 295 299 297 303 298 294 288 279 278 273
15 26 27 31 32 39 59 63 59 59 53 60 76 66 78 94 98 106 94 79 90 92 92 78 75 63 73 57 56 51 50 47 43 41 38 39 40 42 39 42 42 38 36 38 37 36 36 32 26 28 29 32 32 31 45 34 24 25 359 13 9 13 10 75 80 32 344 315 303 325 317 286 244 239 294 270 273 283 284 292 290 286 287 281 280
11 24 35 35 37 41 64 63 52 46 45 60 74 77 78 92 95 95 100 102 96 93 82 74 68 58 71 62 58 54 46 46 42 39 40 39 40 40 42 42 41 38 38 36 31 31 28 32 31 33 29 36 28 32 44 32 34 27 26 6 24 4 13 17 22 360 320 233 296 315 312 324 327 327 327 309 312 305 293 289 289 288 284 283 280
38 45 44 46 40 48 67 72 55 54 50 61 69 75 78 75 92 96 99 105 99 97 91 70 70 62 68 61 60 62 55 52 46 44 43 38 43 43 45 46 45 41 38 35 33 31 28 29 27 33 35 30 22 22 33 39 29 27 25 23 22 22 11 353 340 343 329 307 310 291 300 304 306 312 320 321 319 302 284 282 278 277 281 284 288